Weather History for Moab, UT

Change the Weather History Date:

Sunday, May 12, 2013

  Actual Average Record
Temperature  
Mean Temperature 67 °F 61 °F  
Max Temperature 83 °F 77 °F 97 °F (1934)
Min Temperature 50 °F 46 °F 32 °F (2000)
Degree Days  
Heating Degree Days 0 5  
Month to date heating degree days 94 78  
Since 1 July heating degree days 6024 5503  
Cooling Degree Days 2 1  
Month to date cooling degree days 5 10  
Year to date cooling degree days 6 13  
Growing Degree Days 18 (Base 50)    
Moisture  
Dew Point 30 °F    
Average Humidity 29    
Maximum Humidity 46    
Minimum Humidity 12    
Precipitation  
Precipitation 0.00 in 0.03 in 0.57 in (1946)
Month to date precipitation 0.60 0.27  
Year to date precipitation 1.71 2.89  
Sea Level Pressure  
Sea Level Pressure 30.08 in    
Wind  
Wind Speed 2 mph (West)    
Max Wind Speed 13 mph    
Max Gust Speed 16 mph    
Visibility 10 miles    
Events      
T = Trace of Precipitation, MM = Missing Value Source: NWS Daily Summary

Daily Weather History Graph

Daily Weather History Graph

Search for Another Location

Airport:

Trip Planner

Search our weather history database for the weather conditions in past years. The results will help you decide how hot, cold, wet, or windy it might be!

Date:

Astronomy

May. 12, 2013 Rise Set
Actual Time 6:09 AM MDT 8:22 PM MDT
Civil Twilight 5:39 AM MDT 8:51 PM MDT
Nautical Twilight 5:03 AM MDT 9:28 PM MDT
Astronomical Twilight 4:23 AM MDT 10:08 PM MDT
Moon 8:07 AM MDT (5/12) 10:51 PM MDT (5/12)
Length of Visible Light 15h 12m
Length of Day
14h 12m
Waxing Crescent, 7% of the Moon is Illuminated
May 12
Waxing Crescent
May 17
First Quarter
May 24
Full
May 31
Last Quarter
Jun 8
New

Hourly Weather History & Observations

Time (MDT) Temp. Dew Point Humidity Pressure Visibility Wind Dir Wind Speed Gust Speed Precip Events Conditions
12:53 AM 64.9 °F 28.9 °F 26% 30.10 in 10.0 mi Calm Calm - N/A   Partly Cloudy
1:53 AM 60.1 °F 32.0 °F 35% 30.11 in 10.0 mi Calm Calm - N/A   Clear
2:53 AM 57.0 °F 33.1 °F 40% 30.11 in 10.0 mi Calm Calm - N/A   Clear
3:53 AM 53.1 °F 34.0 °F 48% 30.12 in 10.0 mi Calm Calm - N/A   Clear
4:53 AM 54.0 °F 33.1 °F 45% 30.12 in 10.0 mi Calm Calm - N/A   Clear
5:53 AM 54.0 °F 32.0 °F 43% 30.12 in 10.0 mi Calm Calm - N/A   Clear
6:53 AM 54.0 °F 34.0 °F 47% 30.14 in 10.0 mi Calm Calm - N/A   Clear
7:53 AM 61.0 °F 33.1 °F 35% 30.15 in 10.0 mi Calm Calm - N/A   Clear
8:53 AM 64.4 °F 33.8 °F 32% 30.28 in 10.0 mi Calm Calm - N/A   Clear
9:53 AM 69.1 °F 30.9 °F 24% 30.15 in 10.0 mi NNW 3.5 mph - N/A   Clear
10:53 AM 72.0 °F 32.0 °F 23% 30.12 in 10.0 mi Calm Calm - N/A   Clear
11:53 AM 75.9 °F 32.0 °F 20% 30.11 in 10.0 mi Calm Calm - N/A   Clear
12:53 PM 79.0 °F 30.0 °F 17% 30.08 in 10.0 mi Variable 4.6 mph - N/A   Clear
1:53 PM 81.0 °F 28.0 °F 14% 30.06 in 10.0 mi NNW 9.2 mph 16.1 mph N/A   Clear
2:53 PM 81.0 °F 26.1 °F 13% 30.06 in 10.0 mi Calm Calm - N/A   Clear
3:53 PM 82.0 °F 24.1 °F 12% 30.04 in 10.0 mi WNW 8.1 mph - N/A   Clear
4:53 PM 80.1 °F 24.1 °F 13% 30.03 in 10.0 mi Variable 4.6 mph - N/A   Clear
5:53 PM 81.0 °F 25.0 °F 13% 30.01 in 10.0 mi WSW 5.8 mph - N/A   Clear
6:53 PM 81.0 °F 25.0 °F 13% 29.99 in 10.0 mi Variable 4.6 mph - N/A   Clear
7:53 PM 79.0 °F 27.0 °F 15% 29.98 in 10.0 mi South 4.6 mph - N/A   Clear
8:53 PM 73.0 °F 28.9 °F 20% 29.99 in 10.0 mi Calm Calm - N/A   Clear
9:53 PM 66.9 °F 28.9 °F 24% 30.01 in 10.0 mi WSW 4.6 mph - N/A   Clear
10:53 PM 64.9 °F 28.9 °F 26% 30.02 in 10.0 mi Calm Calm - N/A   Clear
11:53 PM 64.0 °F 30.9 °F 29% 30.02 in 10.0 mi Calm Calm - N/A   Clear